Yuma MCAS, AZ

12:36 AM MST on February 21, 2018 (GMT -0700)
Yuma Marine Corps Air Station

Weather History for KNYL - October, 2013

Change the Weather History Date:

Tuesday, October 1, 2013

  Actual Average Record
Temperature  
Mean Temperature 81 °F 83 °F  
Max Temperature 97 °F 96 °F 110 °F (1980)
Min Temperature 65 °F 71 °F 50 °F (1894)
Degree Days  
Heating Degree Days 0 0  
Month to date heating degree days 0 0  
Since 1 July heating degree days 0 0  
Cooling Degree Days 16 18  
Month to date cooling degree days 16 18  
Year to date cooling degree days 4399 4192  
Growing Degree Days 31 (Base 50)    
Moisture  
Dew Point 48 °F    
Average Humidity 38    
Maximum Humidity 58    
Minimum Humidity 17    
Precipitation  
Precipitation 0.00 in 0.01 in 0.95 in (1990)
Month to date precipitation 0.00 0.01  
Year to date precipitation 2.31 2.63  
Sea Level Pressure  
Sea Level Pressure 29.82 in    
Wind  
Wind Speed 6 mph (SSE)    
Max Wind Speed 14 mph    
Max Gust Speed 17 mph    
Visibility 10 miles    
Events      
T = Trace of Precipitation, MM = Missing Value Source: NWS Daily Summary

Daily Weather History Graph

Daily Weather History Graph

Search for Another Location

Airport or City:

Trip Planner

Search our weather history database for the weather conditions in past years. The results will help you decide how hot, cold, wet, or windy it might be!

Date:

Astronomy

Oct. 01, 2013 Rise Set
Actual Time 6:32 AM MST 6:22 PM MST
Civil Twilight 6:08 AM MST 6:47 PM MST
Nautical Twilight 5:39 AM MST 7:15 PM MST
Astronomical Twilight 5:10 AM MST 7:44 PM MST
Moon 3:20 AM MST (10/1) 4:21 PM MST (10/1)
Length of Visible Light 12h 39m
Length of Day
11h 49m
Waning Crescent, 11% of the Moon is Illuminated
Oct 1
Waning Crescent
Oct 4
New
Oct 11
First Quarter
Oct 18
Full
Oct 26
Last Quarter

Hourly Weather History & Observations

Time (MST) Temp. Heat Index Dew Point Humidity Pressure Visibility Wind Dir Wind Speed Gust Speed Precip Events Conditions
12:57 AM 73.9 °F - 45.0 °F 35% 29.80 in 10.0 mi Calm Calm - N/A   Clear
1:57 AM 72.0 °F - 46.0 °F 40% 29.81 in 10.0 mi Calm Calm - N/A   Clear
2:57 AM 71.1 °F - 46.0 °F 41% 29.81 in 10.0 mi Calm Calm - N/A   Clear
3:57 AM 69.1 °F - 46.0 °F 44% 29.81 in 10.0 mi Calm Calm - N/A   Clear
4:57 AM 69.1 °F - 48.9 °F 49% 29.83 in 10.0 mi South 3.5 mph - N/A   Clear
5:57 AM 66.9 °F - 51.1 °F 57% 29.83 in 10.0 mi South 5.8 mph - N/A   Clear
6:57 AM 66.0 °F - 50.0 °F 56% 29.85 in 10.0 mi NE 4.6 mph - N/A   Clear
7:57 AM 72.0 °F - 50.0 °F 46% 29.86 in 10.0 mi East 6.9 mph - N/A   Clear
8:57 AM 79.0 °F - 48.9 °F 35% 29.87 in 10.0 mi ENE 6.9 mph - N/A   Clear
9:57 AM 82.9 °F 81.8 °F 53.1 °F 36% 29.88 in 10.0 mi SSE 4.6 mph - N/A   Clear
10:57 AM 86.0 °F 84.7 °F 55.9 °F 36% 29.87 in 10.0 mi South 9.2 mph - N/A   Clear
11:57 AM 88.0 °F 85.9 °F 54.0 °F 31% 29.86 in 10.0 mi South 9.2 mph - N/A   Clear
12:57 PM 91.9 °F 89.5 °F 54.0 °F 27% 29.83 in 10.0 mi Variable 6.9 mph 17.3 mph N/A   Clear
1:57 PM 93.9 °F - 46.0 °F 19% 29.81 in 10.0 mi South 10.4 mph - N/A   Clear
2:57 PM 95.0 °F - 45.0 °F 18% 29.79 in 10.0 mi SSE 8.1 mph - N/A   Clear
3:57 PM 96.1 °F - 44.1 °F 17% 29.77 in 10.0 mi South 6.9 mph - N/A   Clear
4:57 PM 96.1 °F - 46.9 °F 19% 29.76 in 10.0 mi Variable 5.8 mph - N/A   Clear
5:57 PM 93.9 °F - 43.0 °F 17% 29.76 in 10.0 mi South 10.4 mph - N/A   Clear
6:57 PM 88.0 °F - 48.0 °F 25% 29.77 in 10.0 mi South 12.7 mph - N/A   Clear
7:57 PM 84.0 °F - 46.9 °F 27% 29.79 in 10.0 mi South 6.9 mph - N/A   Clear
8:57 PM 81.0 °F - 44.1 °F 27% 29.81 in 10.0 mi SSE 10.4 mph - N/A   Clear
9:57 PM 78.1 °F - 45.0 °F 31% 29.81 in 10.0 mi SSE 6.9 mph - N/A   Clear
10:57 PM 75.9 °F - 46.9 °F 36% 29.81 in 10.0 mi SSE 4.6 mph - N/A   Clear
11:57 PM 75.0 °F - 48.9 °F 40% 29.81 in 10.0 mi SSE 3.5 mph - N/A   Clear